TIANMU-1 13

Last updated on Fri Sep 11 2026 00:02:39 GMT+0000 (Coordinated Universal Time)

1 58647U 23205C 26253.43414142 .00004167 00000+0 15801-3 0 9998 2 58647 97.3450 273.7070 0007222 42.2350 317.9444 15.27400735150513
UTC large
Height (km)
Speed (km/s)
/
Latitude / Longitude
Inclination (degrees)
Orbital Period (minutes)
Azimuth
Elevation
Range (km)
Doppler Factor

Next 0 passes for location: London (51.5072 / 0.1276)

No passes found over London.
TIANMU-1 13